Minot, ND

9:43 AM CST on November 23, 2017 (GMT -0600)
Minot International

Weather History for KMOT - October, 2014

Change the Weather History Date:

Monday, October 20, 2014

  Actual Average Record
Temperature  
Mean Temperature 54 °F 43 °F  
Max Temperature 72 °F 53 °F 80 °F (1947)
Min Temperature 35 °F 32 °F 11 °F (1905)
Degree Days  
Heating Degree Days 11 22  
Month to date heating degree days 340 361  
Since 1 July heating degree days 620 681  
Cooling Degree Days 0 0  
Month to date cooling degree days 0 0  
Year to date cooling degree days 341 444  
Growing Degree Days 4 (Base 50)    
Moisture  
Dew Point 35 °F    
Average Humidity 52    
Maximum Humidity 76    
Minimum Humidity 27    
Precipitation  
Precipitation 0.00 in 0.03 in 0.80 in (1908)
Month to date precipitation 0.27 0.83  
Year to date precipitation 15.76 15.73  
Sea Level Pressure  
Sea Level Pressure 29.97 in    
Wind  
Wind Speed 10 mph (SSE)    
Max Wind Speed 22 mph    
Max Gust Speed 29 mph    
Visibility 10 miles    
Events      
T = Trace of Precipitation, MM = Missing Value Source: NWS Daily Summary

Daily Weather History Graph

Daily Weather History Graph

Search for Another Location

Airport or City:

Trip Planner

Search our weather history database for the weather conditions in past years. The results will help you decide how hot, cold, wet, or windy it might be!

Date:

Astronomy

Oct. 20, 2014 Rise Set
Actual Time 8:12 AM CDT 6:46 PM CDT
Civil Twilight 7:40 AM CDT 7:18 PM CDT
Nautical Twilight 7:04 AM CDT 7:54 PM CDT
Astronomical Twilight 6:28 AM CDT 8:30 PM CDT
Moon 4:48 AM CDT (10/20) 5:22 PM CDT (10/20)
Length of Visible Light 11h 37m
Length of Day
10h 34m
Waning Crescent, 10% of the Moon is Illuminated
Oct 20
Waning Crescent
Oct 23
New
Oct 30
First Quarter
Nov 6
Full
Nov 14
Last Quarter

Hourly Weather History & Observations

Time (CDT) Temp. Windchill Dew Point Humidity Pressure Visibility Wind Dir Wind Speed Gust Speed Precip Events Conditions
12:54 AM 48.0 °F - 34.0 °F 58% 30.00 in 10.0 mi SW 11.5 mph - N/A   Clear
1:54 AM 46.0 °F 40.6 °F 33.1 °F 61% 30.00 in 10.0 mi SW 11.5 mph - N/A   Clear
2:54 AM 46.9 °F - 34.0 °F 61% 30.01 in 10.0 mi SW 12.7 mph - N/A   Clear
3:54 AM 45.0 °F 39.3 °F 34.0 °F 65% 30.01 in 10.0 mi SW 11.5 mph - N/A   Clear
4:54 AM 46.0 °F 41.0 °F 34.0 °F 63% 30.01 in 10.0 mi SW 10.4 mph - N/A   Clear
5:54 AM 44.1 °F 39.0 °F 34.0 °F 68% 30.01 in 10.0 mi SSW 9.2 mph - N/A   Clear
6:54 AM 46.9 °F - 35.1 °F 63% 30.03 in 10.0 mi SW 8.1 mph - N/A   Clear
7:54 AM 37.0 °F 34.5 °F 30.9 °F 79% 30.05 in 10.0 mi East 3.5 mph - N/A   Clear
8:54 AM 41.0 °F 36.4 °F 34.0 °F 76% 30.04 in 10.0 mi SE 6.9 mph - N/A   Clear
9:54 AM 48.2 °F - 37.4 °F 66% 30.01 in 10.0 mi SE 4.6 mph - N/A   Clear
10:54 AM 59.0 °F - 39.9 °F 49% 30.02 in 10.0 mi SE 6.9 mph - N/A   Clear
11:54 AM 66.2 °F - 37.4 °F 35% 29.99 in 10.0 mi South 15.0 mph - N/A   Clear
12:54 PM 68.0 °F - 36.0 °F 31% 29.98 in 10.0 mi South 13.8 mph 21.9 mph N/A   Clear
1:54 PM 69.1 °F - 36.0 °F 30% 29.96 in 10.0 mi South 17.3 mph - N/A   Clear
2:54 PM 70.0 °F - 36.0 °F 29% 29.94 in 10.0 mi South 17.3 mph - N/A   Clear
3:54 PM 72.0 °F - 35.1 °F 26% 29.92 in 10.0 mi SSE 13.8 mph - N/A   Clear
4:54 PM 71.1 °F - 36.0 °F 28% 29.91 in 10.0 mi SSE 12.7 mph 20.7 mph N/A   Clear
5:54 PM 68.0 °F - 36.0 °F 31% 29.91 in 10.0 mi SE 9.2 mph - N/A   Clear
6:54 PM 62.1 °F - 37.0 °F 39% 29.91 in 10.0 mi SE 9.2 mph - N/A   Clear
7:54 PM 57.0 °F - 36.0 °F 45% 29.93 in 10.0 mi SE 6.9 mph - N/A   Clear
8:54 PM 54.0 °F - 35.1 °F 49% 29.92 in 10.0 mi SE 8.1 mph - N/A   Clear
9:54 PM 50.0 °F - 34.0 °F 54% 29.92 in 10.0 mi ESE 8.1 mph - N/A   Clear
10:54 PM 48.0 °F - 35.1 °F 61% 29.90 in 10.0 mi ESE 8.1 mph - N/A   Clear
11:54 PM 45.0 °F 41.2 °F 35.1 °F 68% 29.89 in 10.0 mi ESE 6.9 mph - N/A   Clear